This demonstration page uses our WeatherBlox Daily Observations layout. Learn more.

Left ArrowRight Arrow

44.89941, -97.11507

Hourly Observations for May 16, 2019

Temp ( °F °C ) Dew Point ( °F °C ) Humidity (%) Winds ( mph kmh ) Pressure ( in mb ) Visibility ( mi km ) Precip ( " mm )
12:53 am 00:53 Mostly Clear 68 20 54 12.2 61 61 S 12 19 29.63 1003 10 16 0.00 0.00
1:53 am 01:53 Mostly Cloudy 67 19.4 56 13.3 68 68 WSW 8 13 29.65 1004 10 16 0.00 0.03
2:53 am 02:53 Clear 62 16.7 55 12.8 78 78 NW 3 6 29.65 1004 10 16 0.00 0.00
3:53 am 03:53 Clear 61 16.1 55 12.8 81 81 Calm 29.66 1004 10 16 0.00 0.00
4:53 am 04:53 Clear 58 14.4 54 12.2 87 87 Calm 29.67 1005 10 16 0.00 0.00
5:53 am 05:53 Clear 56 13.3 53 11.7 90 90 Calm 29.68 1005 10 16 0.00 0.00
6:53 am 06:53 Sunny 56 13.3 54 12.2 93 93 Calm 29.70 1006 10 16 0.00 0.00
7:53 am 07:53 Sunny 61 16.1 56 13.3 84 84 NNE 3 6 29.72 1006 10 16 0.00 0.00
8:53 am 08:53 Sunny 64 17.8 55 12.8 73 73 N 12 19 29.75 1007 10 16 0.00 0.00
9:53 am 09:53 Sunny 66 18.9 54 12.2 65 65 NNE 16 26 29.76 1008 10 16 0.00 0.00
10:53 am 10:53 Mostly Cloudy 58 14.4 51 10.6 78 78 NNE 21 33 29.80 1009 10 16 0.00 0.00
11:02 am 11:02 Mostly Cloudy 55 12.8 50 10 83 83 N 22 35 29.80 1009 8 13 0.00 0.00
11:46 am 11:46 Partly Cloudy 60 15.6 50 10 70 70 NNE 23 37 29.80 1009 10 16 0.00 0.00
11:53 am 11:53 Mostly Sunny 59 15 49 9.4 69 69 NNE 21 33 29.82 1010 10 16 0.00 0.00
12:53 pm 12:53 Sunny 62 16.7 50 10 65 65 N 21 33 29.82 1010 10 16 0.00 0.00
1:53 pm 13:53 Sunny 62 16.7 49 9.4 62 62 NNE 18 30 29.83 1010 10 16 0.00 0.00
2:53 pm 14:53 Sunny 61 16.1 49 9.4 65 65 N 15 24 29.85 1011 10 16 0.00 0.00
3:53 pm 15:53 Sunny 58 14.4 47 8.3 67 67 NNE 16 26 29.85 1011 10 16 0.00 0.00
4:53 pm 16:53 Sunny 59 15 47 8.3 64 64 NNE 18 30 29.85 1011 10 16 0.00 0.00
5:53 pm 17:53 Hazy 57 13.9 44 6.7 62 62 NNE 16 26 29.87 1012 5 8 0.00 0.00
6:53 pm 18:53 Sunny 57 13.9 42 5.6 58 58 NNE 15 24 29.87 1012 10 16 0.00 0.00
7:53 pm 19:53 Sunny 57 13.9 41 5 55 55 NE 12 19 29.86 1011 10 16 0.00 0.00
8:53 pm 20:53 Clear 55 12.8 41 5 59 59 NNE 10 17 29.86 1011 10 16 0.00 0.00
9:53 pm 21:53 Clear 51 10.6 35 1.7 54 54 NNE 12 19 29.87 1012 10 16 0.00 0.00
10:53 pm 22:53 Clear 50 10 33 0.6 52 52 NNE 15 24 29.87 1012 10 16 0.00 0.00
11:53 pm 23:53 Clear 50 10 33 0.6 52 52 NNE 16 26 29.85 1011 10 16 0.00 0.00

Powered by AerisWeather